FALCON 9 R/B

Last updated on Wed Feb 04 2026 00:02:08 GMT+0000 (Coordinated Universal Time)

1 67673U 26022AB 26034.00365455 .18957846 23926-5 12400-3 0 9999 2 67673 97.2856 65.8839 0079264 265.4221 93.8024 16.44000479 64

Satellite not in orbit

FALCON 9 R/B